Location: Unspecified
(38.3360°N, 0.0000°E)
Time: 21:02:43
(UTC+00:00)

Envisat - Pass Details

Date: 24 May 2019
Orbit: 764 x 766 km, 98.1° (Epoch: 17 June)

Event Time Altitude Azimuth Distance (km) Brightness Sun altitude
Rises 19:38:02 0° 205° (SSW) 3,218 6.2 -5.3°
Reaches altitude 10° 19:41:01 10° 224° (SW) 2,297 5.6 -5.8°
Maximum altitude 19:44:28 18° 267° (W) 1,791 5.8 -6.4°
Drops below altitude 10° 19:47:57 10° 311° (NW) 2,308 7.2 -7.0°
Sets 19:50:59 0° 330° (NNW) 3,239 7.6 -7.4°
